Skip Navigation Links
NOAA logo - Click to go to the NOAA homepage
NOAA's National Weather Service
Alaska Aviation Weather Unit
  NWS logo - Click to go to the NWS homepage
Left Navbar Graphic     21 AKDT = 05 GMT

   
NOAA is celebrating 200 years of science, service, and stewardship. Visit the NOAA 200th celebration Web site to learn more.
USA.gov is the U.S. Government's official Web portal to all Federal, state and local government Web resources and services.
Facebook
NWS on Facebook

Important Change Regarding the AAWU Web Presence

 

Over the last several months, the AAWU has been working to navigate its webpages to a nationally supported server. Security, as well as other needs, have necessitated the change.  In the process, we have made an effort to enhance the functionality of our website, as well as some of our products. As of June 27, 2017, aawu.arh.noaa.gov will be discontinued. The new AAWU web address is weather.gov/aawu. It is now live and will run in-parallel with the old site until it is discontinued. Please send any feedback or questions regarding the new webpages to nws.ar.aawu.webauthors@noaa.gov.  Thank you for your patience during this time of transition.
AAWU Home :: Display TAF Add Bookmark
METAR PAIK 242301Z AUTO 23012G17KT 10SM SCT033 OVC044 11/03 A3013 RMK
     AO2 SLP244 T01060033=

METAR PAIK 250001Z AUTO 24008KT 10SM OVC042 11/03 A3013 RMK AO2 SLP245
     60000 T01060033 10111 20072 58005=

METAR PAIK 250101Z AUTO VRB05KT 10SM BKN037 OVC044 11/03 A3013 RMK AO2
     SLP243 T01060033=

METAR PAIK 250201Z AUTO 21008KT 10SM OVC039 12/03 A3012 RMK AO2 SLP240
     T01170033=

METAR PAIK 250301Z AUTO 23006KT 10SM SCT040 OVC048 12/03 A3011 RMK AO2
     SLP236 T01220033 58004=

METAR PAIK 250401Z AUTO 20005KT 10SM SCT041 BKN050 OVC100 12/04 A3010
     RMK AO2 SLP233 T01170039=

METAR PAIK 250501Z AUTO VRB05KT 10SM OVC046 12/04 A3009 RMK AO2 SLP229
     T01220044=


NOAA's National Weather Service
Alaska Aviation Weather Unit
6930 Sand Lake Road
Anchorage, AK 99502-1845
Disclaimer
Credits
Glossary
Privacy Policy
About Us
Career Opportunities
Contact AAWU Internet Services Site last modified: April, 17th 2012